TJS-15

Last updated on Mon Sep 21 2026 00:03:03 GMT+0000 (Coordinated Universal Time)

1 63157U 25045A 26263.71912771 -.00000222 00000+0 00000+0 0 9997 2 63157 0.4482 84.6784 0000158 220.3691 42.1887 1.00271375 5715
UTC large
Height (km)
Speed (km/s)
/
Latitude / Longitude
Inclination (degrees)
Orbital Period (minutes)
Azimuth
Elevation
Range (km)
Doppler Factor

Next 0 passes for location: London (51.5072 / 0.1276)

No passes found over London.
TJS-15